Location: Champs
(48.8539°N, 2.6040°E)
Time: 18:33:50
(UTC+00:00)

DMSP 5D-2 F13 DEB - Pass Details

Date: 11 August 2022
Orbit: 710 x 775 km, 98.8° (Epoch: 23 September)

Event Time Altitude Azimuth Distance (km) Brightness Sun altitude
Exits shadow 00:33:53 18° 272° (W) 1,847 ? -25.2°
Drops below altitude 10° 00:37:13 10° 312° (NW) 2,330 ? -25.1°
Sets 00:40:21 0° 332° (NNW) 3,271 ? -25.0°
